K9SCH Weather Reports


Display with metric or nautical units.
time (UTC)temp
F
wind
direction
speed
MPH
gust
MPH
rain 1hr
in
rain 24hr
in
rain mn
in
humidity
%
barometer
mb
20260831122015 69 135 7.0 14.0 0.02 0.14 0.14 93 1014.7
20260831121017 70 135 7.0 13.0 0.01 0.13 0.13 93 1014.8
20260831120015 70 135 8.0 15.0 0.01 0.12 0.12 93 1014.7
20260831115038 71 158 8.0 17.0 0.02 0.12 0.12 93 1014.6
20260831114017 71 135 3.0 7.0 0.03 0.12 0.12 93 1014.2
20260831113015 70 113 6.0 10.0 0.07 0.12 0.12 93 1013.3
20260831112017 70 113 6.0 10.0 0.08 0.12 0.12 93 1012.9
20260831111015 71 113 6.0 10.0 0.12 0.12 0.12 93 1012.9
20260831110035 72 135 4.0 10.0 0.11 0.11 0.11 92 1012.7
20260831105038 72 68 4.0 7.0 0.10 0.10 0.10 92 1012.2
20260831104035 72 68 4.0 7.0 0.09 0.09 0.09 91 1011.9
20260831103017 72 68 5.0 8.0 0.05 0.05 0.05 89 1012.3
20260831102015 78 113 4.0 7.0 0.04 0.04 0.04 71 1013.5
20260831101019 80 203 1.0 3.0 0.00 0.00 0.00 58 1014.0
20260831100017 80 338 1.0 4.0 0.00 0.00 0.00 59 1013.2
20260831095039 81 293 2.0 5.0 0.00 0.00 0.00 57 1013.2
20260831094020 81 338 2.0 5.0 0.00 0.00 0.00 56 1013.3
20260831093017 81 23 5.0 11.0 0.00 0.00 0.00 56 1013.0
20260831092020 81 23 4.0 8.0 0.00 0.00 0.00 56 1012.9
20260831091038 81 338 4.0 7.0 0.00 0.00 0.00 57 1013.0
20260831090017 81 338 3.0 8.0 0.00 0.00 0.00 58 1012.8
20260831085039 81 315 5.0 12.0 0.00 0.00 0.00 58 1012.9
20260831084017 82 338 5.0 11.0 0.00 0.00 0.00 57 1013.0
20260831083019 82 293 4.0 11.0 0.00 0.00 0.00 56 1013.3
20260831082037 82 293 6.0 11.0 0.00 0.00 0.00 54 1013.6
20260831081017 82 270 4.0 8.0 0.00 0.00 0.00 54 1013.4
20260831080017 82 270 3.0 6.0 0.00 0.00 0.00 54 1013.2
20260831075019 82 0.0 0.0 0.00 0.00 0.00 55 1012.6
20260831074019 82 135 1.0 4.0 0.00 0.00 0.00 55 1012.5
20260831073015 83 0.0 0.0 0.00 0.00 0.00 54 1012.6
20260831072037 83 0.0 4.0 0.00 0.00 0.00 53 1012.8
20260831071040 83 113 1.0 4.0 0.00 0.00 0.00 53 1012.7
20260831070037 83 113 3.0 5.0 0.00 0.00 0.00 53 1012.9
20260831065038 83 113 2.0 6.0 0.00 0.00 0.00 53 1012.8
20260831064036 83 113 3.0 5.0 0.00 0.00 0.00 52 1012.6
20260831063018 83 113 2.0 5.0 0.00 0.00 0.00 53 1012.6
20260831062016 83 0.0 1.0 0.00 0.00 0.00 53 1012.5
20260831061038 82 0.0 0.0 0.00 0.00 0.00 53 1012.6
20260831060020 83 0.0 0.0 0.00 0.00 0.00 53 1012.6
20260831055036 83 0.0 1.0 0.00 0.00 0.00 52 1012.7
20260831054016 83 0.0 1.0 0.00 0.00 0.00 52 1012.6
20260831053016 83 293 2.0 8.0 0.00 0.02 0.00 52 1013.0
20260831052019 84 248 2.0 5.0 0.00 0.02 0.00 53 1013.0
20260831051016 84 248 2.0 7.0 0.00 0.02 0.00 53 1012.6
20260831050017 84 248 8.0 13.0 0.00 0.03 0.00 53 1012.6
20260831045016 84 270 12.0 16.0 0.00 0.04 0.00 53 1012.4
20260831044018 84 248 13.0 18.0 0.00 0.05 0.00 53 1012.5
20260831043018 85 270 11.0 18.0 0.00 0.05 0.00 51 1012.5
20260831042016 85 270 9.0 16.0 0.00 0.05 0.00 51 1012.3
20260831040018 89 248 14.0 24.0 0.00 0.07 0.00 43 1011.8
20260831035020 89 248 10.0 16.0 0.00 0.10 0.00 42 1011.4
20260831034018 90 248 15.0 22.0 0.00 0.10 0.00 41 1011.2
20260831033016 91 248 11.0 16.0 0.00 0.10 0.00 40 1010.9
20260831032017 92 225 10.0 17.0 0.00 0.10 0.00 40 1010.8
20260831031016 92 225 7.0 14.0 0.00 0.10 0.00 39 1010.5
20260831030018 94 225 4.0 9.0 0.00 0.10 0.00 37 1010.5
20260831025016 94 0.0 0.0 0.00 0.10 0.00 38 1010.1
20260831024017 95 0.0 0.0 0.00 0.10 0.00 37 1009.9
20260831023016 95 0.0 0.0 0.00 0.10 0.00 35 1009.7
20260831022016 96 0.0 0.0 0.00 0.10 0.00 34 1009.5
20260831021017 96 0.0 0.0 0.00 0.10 0.00 34 1009.3
20260831020016 97 0.0 1.0 0.00 0.10 0.00 33 1009.2
20260831015017 97 0.0 1.0 0.00 0.10 0.00 32 1009.2
20260831014017 97 0.0 1.0 0.00 0.10 0.00 32 1009.3
20260831013017 98 338 1.0 3.0 0.00 0.10 0.00 32 1009.3
20260831012037 98 0.0 1.0 0.00 0.10 0.00 31 1009.0
20260831011017 98 23 3.0 5.0 0.00 0.10 0.00 32 1009.1
20260831010018 97 338 3.0 5.0 0.00 0.10 0.00 32 1009.0
20260831005017 98 338 2.0 5.0 0.00 0.10 0.00 32 1009.1
20260831004018 98 338 1.0 5.0 0.00 0.10 0.00 32 1009.2
20260831003016 98 338 3.0 7.0 0.00 0.10 0.00 31 1009.3
20260831002036 99 338 2.0 6.0 0.00 0.10 0.00 31 1009.4
20260831001018 100 0 2.0 7.0 0.00 0.10 0.00 30 1009.3
20260831000016 101 338 2.0 5.0 0.00 0.10 0.00 29 1009.4
20260830235016 101 270 2.0 5.0 0.00 0.10 0.00 29 1009.5
20260830234036 101 225 1.0 6.0 0.00 0.10 0.00 29 1009.5
20260830233018 101 293 4.0 9.0 0.00 0.10 0.00 29 1009.6
20260830232017 101 270 2.0 6.0 0.00 0.10 0.00 29 1009.6
20260830231017 101 248 6.0 13.0 0.00 0.10 0.00 29 1009.8
20260830230018 100 293 3.0 6.0 0.00 0.10 0.00 30 1010.0
20260830225016 101 338 3.0 9.0 0.00 0.10 0.00 30 1010.2
20260830224038 100 270 3.0 7.0 0.00 0.10 0.00 29 1010.3
20260830223017 100 293 5.0 9.0 0.00 0.10 0.00 29 1010.4
20260830222017 100 270 2.0 10.0 0.00 0.10 0.00 30 1010.6
20260830221016 100 293 1.0 5.0 0.00 0.10 0.00 30 1010.8
20260830220018 99 23 1.0 6.0 0.00 0.10 0.00 30 1011.0
20260830215018 99 68 4.0 9.0 0.00 0.10 0.00 30 1011.2
20260830214016 100 270 4.0 9.0 0.00 0.10 0.00 30 1011.5
20260830213021 99 135 2.0 4.0 0.00 0.10 0.00 31 1011.6
20260830212016 100 293 4.0 8.0 0.00 0.10 0.00 31 1011.8
20260830211018 99 270 5.0 10.0 0.00 0.10 0.00 31 1012.0
20260830210047 100 0.0 4.0 0.00 0.10 0.00 31 1012.2
20260830205016 99 248 7.0 12.0 0.00 0.10 0.00 31 1012.4
20260830204015 99 315 1.0 7.0 0.00 0.10 0.00 32 1012.6
20260830203016 98 338 3.0 7.0 0.00 0.10 0.00 32 1012.6
20260830202036 98 293 1.0 7.0 0.00 0.10 0.00 32 1012.8
20260830201015 98 338 3.0 7.0 0.00 0.10 0.00 32 1012.9
20260830200016 98 293 2.0 8.0 0.00 0.10 0.00 33 1013.0
20260830195016 98 45 3.0 6.0 0.00 0.10 0.00 33 1013.1
20260830194018 98 338 1.0 6.0 0.00 0.10 0.00 33 1013.2
20260830193016 98 248 3.0 7.0 0.00 0.10 0.00 33 1013.4
20260830192035 98 293 2.0 7.0 0.00 0.10 0.00 34 1013.4
20260830191016 98 0.0 0.0 0.00 0.10 0.00 33 1013.7
20260830190015 97 0.0 5.0 0.00 0.10 0.00 34 1013.8
20260830185019 96 0 2.0 6.0 0.00 0.10 0.00 36 1013.7
20260830184015 96 23 3.0 7.0 0.00 0.10 0.00 35 1013.9
20260830183035 97 0.0 4.0 0.00 0.10 0.00 35 1014.1
20260830182020 96 0.0 1.0 0.00 0.10 0.00 35 1014.1
20260830181017 96 135 1.0 4.0 0.00 0.10 0.00 35 1014.2
20260830180019 95 0.0 1.0 0.00 0.10 0.00 36 1014.4
20260830175015 95 180 1.0 6.0 0.00 0.10 0.00 37 1014.5
20260830174017 94 68 1.0 4.0 0.00 0.10 0.00 37 1014.5
20260830173017 95 0.0 1.0 0.00 0.10 0.00 38 1014.8
20260830172037 94 0.0 1.0 0.00 0.10 0.00 38 1014.8
20260830171017 93 90 2.0 5.0 0.00 0.10 0.00 40 1014.7
20260830170035 94 0.0 1.0 0.00 0.10 0.00 39 1014.9
20260830165015 93 0.0 1.0 0.00 0.10 0.00 40 1014.7
20260830164017 92 0.0 5.0 0.00 0.10 0.00 40 1014.6
20260830163016 91 135 1.0 4.0 0.00 0.10 0.00 42 1014.5
20260830162017 91 158 2.0 4.0 0.00 0.10 0.00 43 1014.5
20260830161017 89 135 2.0 5.0 0.00 0.10 0.00 45 1014.4
20260830160037 88 113 4.0 8.0 0.00 0.10 0.00 47 1014.9
20260830155016 87 135 4.0 8.0 0.00 0.10 0.00 48 1014.9
20260830154017 86 113 5.0 10.0 0.00 0.10 0.00 50 1014.9
20260830153015 85 135 4.0 8.0 0.00 0.10 0.00 52 1014.8
20260830152019 84 135 4.0 10.0 0.00 0.10 0.00 55 1015.2
20260830151018 83 135 4.0 9.0 0.00 0.10 0.00 58 1015.2
20260830150015 82 135 4.0 6.0 0.00 0.10 0.00 59 1015.1
20260830145017 80 113 3.0 5.0 0.00 0.10 0.00 61 1015.2
20260830144036 80 113 4.0 6.0 0.00 0.10 0.00 62 1015.1
20260830143015 79 113 3.0 5.0 0.00 0.10 0.00 63 1015.0
20260830142017 79 135 4.0 7.0 0.00 0.10 0.00 63 1014.8
20260830141017 78 135 2.0 5.0 0.00 0.10 0.00 64 1014.8
20260830140016 79 135 3.0 6.0 0.00 0.10 0.00 63 1015.0
20260830135017 79 135 2.0 5.0 0.00 0.10 0.00 62 1015.2
20260830134017 79 135 4.0 7.0 0.00 0.10 0.00 61 1015.1
20260830133015 79 135 4.0 7.0 0.00 0.10 0.00 60 1014.8
20260830132016 79 135 2.0 5.0 0.00 0.10 0.00 60 1014.8
20260830131037 80 135 4.0 7.0 0.00 0.10 0.00 59 1014.8
20260830130016 80 135 4.0 7.0 0.00 0.10 0.00 59 1014.7
20260830125015 80 113 4.0 6.0 0.00 0.10 0.00 62 1014.6
20260830124035 80 113 6.0 9.0 0.00 0.10 0.00 59 1014.6
20260830123038 80 113 4.0 7.0 0.00 0.10 0.00 58 1014.5